Flag for Slovenia Weather past 2 weeks in Ljubljana, Slovenia

Now
56 °F

Overcast.


Feels Like: 56 °F
Forecast: 30 / 56 °F
Wind: 5 mph from West

Location: Ljubljana / Bezigrad

Current Time: Mar 31, 2015 at 8:18:06 PM

Latest Report: Mar 31, 2015 at 7:00 PM


Visibility: 16 mi

Pressure: 29.60 "Hg

Humidity: 67%

Dew point: 46 °F

Location of LjubljanaLocation

Historic Weather in Ljubljana — Graph

°F

Ljubljana temperature yesterday

Maximum temperature yesterday: 62 °F (at 3:00 PM)
Minimum temperature yesterday: 49 °F (at 2:00 AM)
Average temperature yesterday: 54 °F

Past Weeks' High & Low Weather Summary

 TemperatureHumidityPressure
High63 °F (Mar 29, 4:00 PM)98% (Mar 17, 7:00 AM)30.49 "Hg (Mar 17, 7:00 AM)
Low32 °F (Mar 18, 6:00 AM)28% (Mar 28, 3:00 PM)29.50 "Hg (Mar 30, 1:00 PM)
Average48 °F67%30.02 "Hg
* Reported Mar 16 6:00 PM — Mar 31 7:00 PM, Ljubljana, Weather by CustomWeather, © 2015

Note: Actual official high and low records may vary slightly from our data, if they occured in-between our weather recording intervals... More about our weather records

Advertising

Ljubljana weather history for previous 24 hours

 ConditionsComfort  
Time TempWeatherWind HumidityBarometerVisibility
7:00 PM
Tue, Mar 31
56 °FOvercast.5 mph67%29.60 "Hg16 mi
6:00 PM58 °FOvercast.5 mph58%29.59 "Hg16 mi
5:00 PM59 °FOvercast.5 mph58%29.60 "Hg16 mi
4:00 PM60 °FOvercast.6 mph55%29.60 "Hg16 mi
3:00 PM61 °FOvercast.6 mph53%29.61 "Hg19 mi
2:00 PM60 °FPartly sunny.6 mph55%29.65 "Hg17 mi
1:00 PM58 °FPartly sunny.5 mph58%29.67 "Hg17 mi
12:00 PM53 °FPartly sunny.2 mph66%29.73 "Hg17 mi
11:00 AM49 °FOvercast.2 mph68%29.78 "Hg19 mi
10:00 AM49 °FPartly sunny.1 mph69%29.82 "Hg19 mi
9:00 AM47 °FSprinkles. Overcast.2 mph64%29.84 "Hg12 mi
8:00 AM47 °FOvercast.1 mph66%29.85 "Hg19 mi
7:00 AM47 °FPartly sunny.1 mph66%29.87 "Hg19 mi
6:00 AM47 °FPassing clouds.2 mph66%29.90 "Hg19 mi
4:00 AM48 °FCool.1 mph73%29.90 "HgN/A
3:00 AM48 °FCool.2 mph77%29.89 "HgN/A
2:00 AM48 °FCool.1 mph78%29.88 "HgN/A
1:00 AM48 °FCool.1 mph83%29.88 "HgN/A
12:00 AM49 °FCool.No wind79%29.85 "HgN/A
11:00 PM
Mon, Mar 30
51 °FCool.2 mph72%29.81 "HgN/A
10:00 PM54 °FPassing clouds.2 mph60%29.78 "Hg19 mi
9:00 PM55 °FPassing clouds.1 mph58%29.74 "Hg19 mi
8:00 PM55 °FPassing clouds.3 mph56%29.67 "Hg19 mi
Weather by CustomWeather, © 2015

See weather overviewHow to use our weather pages